Regional Weather Roundup
Issued by NWS

Home | Current Version | Previous Version | Text Only | Print | Product List | Glossary On
Versions: 1 2 3 4 5 6 7 8 9 10 11 12 13 14 15 16 17 18 19 20 21 22 23 24 25 26 27 28
000
ASUS44 KBMX 250610
RWRAL

ALABAMA REGIONAL WEATHER ROUNDUP
NATIONAL WEATHER SERVICE BIRMINGHAM AL
100 AM CDT SAT OCT 25 2014

NOTE: "FAIR" INDICATES FEW OR NO CLOUDS BELOW 12,000 FEET
WITH NO SIGNIFICANT WEATHER AND/OR OBSTRUCTIONS TO VISIBILITY.

THE REMARK "TC" DENOTES TEMPERATURE IN DEGREES CELSIUS.

ALZ001>011-014-016>018-020-250700-
NORTH ALABAMA

CITY           SKY/WX    TMP DP  RH WIND       PRES   REMARKS
MUSCLE SHOALS  CLEAR     48  45  89 CALM      30.11S
6HR MIN TEMP:  47; 6HR MAX TEMP:  63;

HUNTSVILLE     CLEAR     50  43  77 CALM      30.09S
6HR MIN TEMP:  49; 6HR MAX TEMP:  63;

DECATUR        CLEAR     48  44  86 CALM      30.10S
6HR MIN TEMP:  46; 6HR MAX TEMP:  57;

HALEYVILLE     FAIR      45  44  96 CALM      30.13S
6HR MIN TEMP:  45; 6HR MAX TEMP:  55;

GADSDEN        CLEAR     45  37  76 CALM      30.08F
6HR MIN TEMP:  45; 6HR MAX TEMP:  55;

$$

ALZ012-013-022-023-030>036-040>044-250700-
WEST CENTRAL ALABAMA

CITY           SKY/WX    TMP DP  RH WIND       PRES   REMARKS
TUSCALOOSA     CLEAR     50  46  86 CALM      30.10S
6HR MIN TEMP:  48; 6HR MAX TEMP:  64;

$$

ALZ015-024>027-033>036-040>044-250700-
CENTRAL ALABAMA

CITY           SKY/WX    TMP DP  RH WIND       PRES   REMARKS
BIRMINGHAM     CLEAR     47  42  83 CALM      30.10F
6HR MIN TEMP:  47; 6HR MAX TEMP:  62;

MONTGOMERY     CLEAR     48  44  86 W3        30.07S
6HR MIN TEMP:  47; 6HR MAX TEMP:  64;

SHELBY CO ARPT CLEAR     50  45  83 CALM      30.08S
6HR MIN TEMP:  50; 6HR MAX TEMP:  60;

MAXWELL AFB    CLEAR     47  47  99 CALM      30.06S
6HR MIN TEMP:  47; 6HR MAX TEMP:  60; 6HR PCP: TRACE;

GREENVILLE     FAIR      54  43  66 N6        30.06S
6HR MIN TEMP:  50; 6HR MAX TEMP:  61;

$$

ALZ019-021-028-029-037-038-045>048-250700-
EAST CENTRAL ALABAMA

CITY           SKY/WX    TMP DP  RH WIND       PRES   REMARKS
ANNISTON       CLEAR     44  41  89 CALM      30.08S
6HR MIN TEMP:  44; 6HR MAX TEMP:  67;

ALEXANDER CITY CLEAR     49  46  92 CALM      30.07R
6HR MIN TEMP:  49; 6HR MAX TEMP:  59;

AUBURN         CLEAR     50  39  66 N8        30.08R
6HR MIN TEMP:  50; 6HR MAX TEMP:  61;

$$

ALZ051>064-250700-
SOUTHWEST ALABAMA

CITY           SKY/WX    TMP DP  RH WIND       PRES   REMARKS
MOBILE         CLEAR     51  47  86 N3        30.08R
6HR MIN TEMP:  49; 6HR MAX TEMP:  61;

BROOKLEY FIELD CLEAR     56  47  71 NW6       30.08S
6HR MIN TEMP:  54; 6HR MAX TEMP:  62;

EVERGREEN      CLEAR     48  45  89 NW3       30.07S
6HR MIN TEMP:  48; 6HR MAX TEMP:  60;

$$

ALZ049-050-065>069-250700-
SOUTHEAST ALABAMA

CITY           SKY/WX    TMP DP  RH WIND       PRES   REMARKS
DOTHAN         CLEAR     49  46  90 CALM      30.06F
6HR MIN TEMP:  48; 6HR MAX TEMP:  61;

OZARK          CLEAR     55  45  70 NW6       30.04S
6HR MIN TEMP:  52; 6HR MAX TEMP:  63;

TROY           CLEAR     45  43  93 CALM      30.06S
6HR MIN TEMP:  45; 6HR MAX TEMP:  60;

EUFAULA        FAIR      47  45  93 CALM      30.03R
6HR MIN TEMP:  47; 6HR MAX TEMP:  55;

$$



USA.gov is the U.S. government's official web portal to all federal, state and local government web resources and services.